Flag for Hong Kong Weather past 2 weeks in Kowloon, Hong Kong

73 °F

Passing clouds.

Feels Like: 75 °F
Forecast: 72 / 79 °F
Wind: 8 mph from East

Location: National Airport

Current Time: Dec 1, 2015 at 7:34:55 AM

Latest Report: Dec 1, 2015 at 7:00 AM

Visibility: N/A

Pressure: 30.04 "Hg

Humidity: 74%

Dew point: 64 °F

Location of KowloonLocation

Historic Weather in Kowloon — Graph


Kowloon temperature yesterday

Maximum temperature yesterday: 75 °F (at 2:00 PM)
Minimum temperature yesterday: 68 °F (at 1:30 AM)
Average temperature yesterday: 72 °F

Past Weeks' High & Low Weather Summary

High88 °F (Nov 19, 1:00 PM)89% (Nov 16, 6:00 AM)30.24 "Hg (Nov 16, 6:00 AM)
Low59 °F (Nov 26, 4:00 AM)22% (Nov 26, 2:30 PM)29.86 "Hg (Nov 16, 2:30 PM)
Average76 °F67%30.05 "Hg
* Reported Nov 16 6:00 AM — Dec 1 6:30 AM, Kowloon, Weather by CustomWeather, © 2015

Note: Actual official high and low records may vary slightly from our data, if they occured in-between our weather recording intervals... More about our weather records


Kowloon weather history for previous 24 hours

Time TempWeatherWind HumidityBarometerVisibility
6:30 AM
Tue, Dec 1
73 °FPassing clouds.3 mph74%30.04 "Hg5 mi
6:00 AM72 °FPassing clouds.3 mph83%30.04 "Hg4 mi
5:30 AM73 °FPassing clouds.3 mph78%30.04 "Hg4 mi
5:00 AM73 °FPassing clouds.3 mph74%30.04 "Hg5 mi
4:30 AM73 °FPassing clouds.5 mph74%30.04 "Hg5 mi
4:00 AM73 °FPassing clouds.6 mph78%30.04 "Hg4 mi
3:30 AM73 °FPassing clouds.6 mph74%30.04 "Hg4 mi
3:00 AM72 °FPassing clouds.9 mph83%30.04 "Hg4 mi
2:30 AM73 °FPassing clouds.7 mph74%30.04 "Hg4 mi
2:00 AM73 °FPassing clouds.5 mph74%30.04 "Hg5 mi
1:30 AM73 °FPassing clouds.5 mph74%30.07 "Hg4 mi
1:00 AM72 °FPassing clouds.1 mph78%30.07 "Hg4 mi
12:30 AM73 °FPassing clouds.3 mph74%30.07 "Hg4 mi
12:00 AM73 °FPassing clouds.2 mph74%30.07 "Hg5 mi
11:30 PM
Mon, Nov 30
73 °FPassing clouds.5 mph69%30.07 "Hg5 mi
11:00 PM73 °FPassing clouds.2 mph74%30.07 "Hg6 mi
10:30 PM72 °FPassing clouds.3 mph78%30.07 "Hg5 mi
10:00 PM73 °FPassing clouds.3 mph74%30.07 "Hg6 mi
9:30 PM73 °FPassing clouds.2 mph69%30.07 "Hg5 mi
9:00 PM73 °FPassing clouds.2 mph69%30.07 "Hg6 mi
8:30 PM72 °FPassing clouds.3 mph73%30.07 "Hg6 mi
8:00 PM73 °FPassing clouds.3 mph74%30.07 "Hg5 mi
7:30 PM73 °FPassing clouds.3 mph69%30.07 "Hg6 mi
7:00 PM73 °FPassing clouds.5 mph69%30.07 "Hg5 mi
6:30 PM73 °FPassing clouds.3 mph74%30.04 "Hg5 mi
6:00 PM73 °FPassing clouds.5 mph74%30.04 "Hg4 mi
5:30 PM73 °FPassing clouds.5 mph65%30.04 "Hg3 mi
5:00 PM75 °FPassing clouds.3 mph61%30.04 "Hg3 mi
4:30 PM75 °FPassing clouds.3 mph61%30.04 "Hg3 mi
3:00 PM75 °FPassing clouds.6 mph61%30.01 "Hg3 mi
2:30 PM75 °FPassing clouds.7 mph61%30.04 "Hg3 mi
2:00 PM75 °FPassing clouds.7 mph61%30.04 "Hg3 mi
1:30 PM73 °FHaze.8 mph65%30.07 "Hg3 mi
1:00 PM73 °FHaze.10 mph65%30.07 "Hg3 mi
12:30 PM73 °FHaze.12 mph65%30.09 "Hg3 mi
12:00 PM73 °FPassing clouds.10 mph65%30.09 "Hg3 mi
11:30 AM73 °FPassing clouds.12 mph65%30.12 "Hg3 mi
11:00 AM73 °FPassing clouds.7 mph61%30.12 "Hg4 mi
10:30 AM72 °FPassing clouds.6 mph61%30.12 "Hg4 mi
10:00 AM73 °FPassing clouds.7 mph61%30.15 "Hg4 mi
9:00 AM72 °FPassing clouds.8 mph65%30.15 "Hg3 mi
8:30 AM70 °FPassing clouds.8 mph69%30.15 "Hg3 mi
8:00 AM68 °FPassing clouds.8 mph73%30.12 "Hg3 mi
7:00 AM68 °FHaze.15 mph78%30.12 "Hg3 mi
Weather by CustomWeather, © 2015

See weather overviewHow to use our weather pages